JBU1721 KJFK-KTPA

Flight info

Callsign JBU1721
Flight time N/A
Altitude 34000
Route SKORR6 RNGRR WHITE Q409 ENEME/N0466F350 BAAMF DADES2
Aircraft A21N/M-SDE2E3FGHIRWXY/LB1

Departure

Time 2026-05-07 23:01
Airport John F. Kennedy International Airport (KJFK)

Arrival

Time N/A
Airport Tampa International Airport (KTPA)
Time Latitude Longitude Altitude Speed Heading
2026-05-07 22:29 40.64671 -73.77540 28 ft 0 kts 238°
2026-05-07 22:48 40.64673 -73.77534 28 ft 4 kts 238°
2026-05-07 22:49 40.64688 -73.77503 28 ft 4 kts 238°
2026-05-07 22:49 40.64699 -73.77479 28 ft 4 kts 234°
2026-05-07 22:49 40.64713 -73.77464 28 ft 4 kts 163°
2026-05-07 22:49 40.64726 -73.77482 28 ft 4 kts 121°
2026-05-07 22:50 40.64732 -73.77495 28 ft 0 kts 121°
2026-05-07 22:54 40.64724 -73.77479 28 ft 4 kts 120°
2026-05-07 22:55 40.64730 -73.77418 28 ft 10 kts 59°
2026-05-07 22:55 40.64777 -73.77328 29 ft 15 kts 90°
2026-05-07 22:55 40.64723 -73.77186 28 ft 19 kts 121°
2026-05-07 22:55 40.64620 -73.77091 28 ft 20 kts 186°
2026-05-07 22:56 40.64475 -73.77098 27 ft 20 kts 178°
2026-05-07 22:56 40.64418 -73.77010 26 ft 10 kts 113°
2026-05-07 22:56 40.64392 -73.76919 29 ft 12 kts 121°
2026-05-07 22:56 40.64345 -73.76816 24 ft 14 kts 119°
2026-05-07 22:57 40.64311 -73.76737 24 ft 15 kts 120°
2026-05-07 22:57 40.64226 -73.76654 27 ft 18 kts 200°
2026-05-07 22:57 40.64104 -73.76740 31 ft 21 kts 210°
2026-05-07 22:57 40.63968 -73.76846 31 ft 24 kts 212°
2026-05-07 22:58 40.63811 -73.76909 32 ft 25 kts 182°
2026-05-07 22:58 40.63631 -73.76915 31 ft 27 kts 179°
2026-05-07 22:58 40.63442 -73.76930 28 ft 28 kts 187°
2026-05-07 22:58 40.63251 -73.76946 28 ft 28 kts 180°
2026-05-07 22:59 40.63067 -73.76985 28 ft 22 kts 213°
2026-05-07 22:59 40.62963 -73.77072 28 ft 18 kts 212°
2026-05-07 22:59 40.62912 -73.77113 29 ft 0 kts 211°
2026-05-07 23:00 40.62909 -73.77115 29 ft 2 kts 211°
2026-05-07 23:00 40.62882 -73.77137 29 ft 7 kts 210°
2026-05-07 23:00 40.62826 -73.77182 29 ft 12 kts 226°
2026-05-07 23:00 40.62830 -73.77246 29 ft 6 kts 301°
2026-05-07 23:01 40.62985 -73.77591 34 ft 82 kts 302°
2026-05-07 23:01 40.63392 -73.78484 27 ft 143 kts 302°
2026-05-07 23:01 40.63965 -73.79772 181 ft 174 kts 302°
2026-05-07 23:01 40.64546 -73.81139 875 ft 170 kts 301°
2026-05-07 23:02 40.64854 -73.82705 1447 ft 180 kts 272°
2026-05-07 23:02 40.64546 -73.84351 2003 ft 194 kts 246°
2026-05-07 23:02 40.63637 -73.85755 2528 ft 215 kts 219°
2026-05-07 23:02 40.62284 -73.86726 3184 ft 223 kts 211°
2026-05-07 23:03 40.60951 -73.87749 4053 ft 222 kts 216°
2026-05-07 23:03 40.59694 -73.88966 4793 ft 226 kts 223°
2026-05-07 23:03 40.58497 -73.90404 5261 ft 245 kts 229°
2026-05-07 23:03 40.57314 -73.92147 5724 ft 263 kts 232°
2026-05-07 23:04 40.56051 -73.93936 6473 ft 272 kts 222°
2026-05-07 23:04 40.54422 -73.95233 7394 ft 273 kts 211°
2026-05-07 23:04 40.52818 -73.96465 8489 ft 263 kts 219°
2026-05-07 23:04 40.51263 -73.97732 9468 ft 263 kts 217°
2026-05-07 23:05 40.49688 -73.98942 10326 ft 264 kts 218°
2026-05-07 23:05 40.48089 -74.00223 10808 ft 277 kts 218°
2026-05-07 23:05 40.46398 -74.01608 11100 ft 297 kts 217°
2026-05-07 23:05 40.44588 -74.03088 11350 ft 316 kts 217°
2026-05-07 23:06 40.42656 -74.04662 11595 ft 335 kts 217°
2026-05-07 23:06 40.40625 -74.06315 11843 ft 353 kts 217°
2026-05-07 23:06 40.38477 -74.08051 12134 ft 365 kts 217°
2026-05-07 23:06 40.36289 -74.09820 12657 ft 369 kts 217°
2026-05-07 23:07 40.34106 -74.11590 13367 ft 370 kts 217°
2026-05-07 23:07 40.31917 -74.13364 14017 ft 370 kts 217°
2026-05-07 23:07 40.29726 -74.15142 14579 ft 371 kts 217°
2026-05-07 23:07 40.27519 -74.16933 15201 ft 374 kts 217°
2026-05-07 23:08 40.25293 -74.18731 15811 ft 378 kts 216°
2026-05-07 23:08 40.22927 -74.20287 16379 ft 387 kts 207°
2026-05-07 23:08 40.20290 -74.21210 16942 ft 398 kts 197°
2026-05-07 23:08 40.17535 -74.21779 17484 ft 403 kts 195°
2026-05-07 23:09 40.14745 -74.22311 18035 ft 406 kts 195°
2026-05-07 23:09 40.11947 -74.22857 18512 ft 408 kts 196°
2026-05-07 23:09 40.09136 -74.23419 18957 ft 410 kts 196°
2026-05-07 23:09 40.06306 -74.23995 19395 ft 413 kts 196°
2026-05-07 23:10 40.03469 -74.24619 19839 ft 412 kts 199°
2026-05-07 23:10 40.00759 -74.25675 20314 ft 404 kts 208°
2026-05-07 23:10 39.98289 -74.27351 20846 ft 398 kts 218°
2026-05-07 23:10 39.96052 -74.29426 21435 ft 398 kts 221°
2026-05-07 23:11 39.93817 -74.31600 22009 ft 399 kts 221°
2026-05-07 23:11 39.91589 -74.33762 22503 ft 401 kts 221°
2026-05-07 23:11 39.89338 -74.35918 23011 ft 403 kts 221°
2026-05-07 23:11 39.87065 -74.38091 23321 ft 407 kts 222°
2026-05-07 23:12 39.84769 -74.40280 23607 ft 411 kts 221°
2026-05-07 23:12 39.82460 -74.42474 24091 ft 408 kts 223°
2026-05-07 23:12 39.80362 -74.44896 24631 ft 400 kts 229°
2026-05-07 23:12 39.78418 -74.47457 25153 ft 396 kts 230°
2026-05-07 23:13 39.76478 -74.50050 25692 ft 393 kts 230°
2026-05-07 23:13 39.74584 -74.52574 26275 ft 388 kts 231°
2026-05-07 23:13 39.72743 -74.55024 26695 ft 381 kts 231°
2026-05-07 23:13 39.70879 -74.57515 26795 ft 386 kts 231°
2026-05-07 23:14 39.68971 -74.60038 26824 ft 386 kts 231°
2026-05-07 23:14 39.67091 -74.62528 26828 ft 386 kts 231°
2026-05-07 23:14 39.65227 -74.64976 26835 ft 386 kts 230°
2026-05-07 23:14 39.63316 -74.67492 26835 ft 386 kts 231°
2026-05-07 23:15 39.61441 -74.69985 26836 ft 386 kts 231°
2026-05-07 23:15 39.59564 -74.72477 27034 ft 387 kts 231°
2026-05-07 23:15 39.57676 -74.74974 27500 ft 386 kts 231°
2026-05-07 23:15 39.55800 -74.77444 28015 ft 383 kts 231°
2026-05-07 23:16 39.53933 -74.79898 28517 ft 381 kts 231°
2026-05-07 23:16 39.52080 -74.82331 29002 ft 379 kts 231°
2026-05-07 23:16 39.50238 -74.84752 29472 ft 376 kts 231°
2026-05-07 23:16 39.48404 -74.87159 29933 ft 374 kts 231°
2026-05-07 23:17 39.46578 -74.89548 30293 ft 372 kts 231°
2026-05-07 23:17 39.44768 -74.91912 30685 ft 369 kts 231°
2026-05-07 23:17 39.42962 -74.94266 31033 ft 367 kts 231°
2026-05-07 23:17 39.41168 -74.96610 31357 ft 366 kts 231°
2026-05-07 23:18 39.39381 -74.98949 31670 ft 365 kts 232°
2026-05-07 23:18 39.37599 -75.01284 31972 ft 365 kts 232°
2026-05-07 23:18 39.35816 -75.03614 32253 ft 364 kts 232°
2026-05-07 23:18 39.34034 -75.05937 32554 ft 363 kts 232°
2026-05-07 23:19 39.32586 -75.07824 32731 ft 365 kts 232°
2026-05-07 23:19 39.30792 -75.10161 32892 ft 368 kts 232°
2026-05-07 23:19 39.28928 -75.12441 33031 ft 371 kts 230°
2026-05-07 23:19 39.27022 -75.14676 33354 ft 369 kts 230°
2026-05-07 23:20 39.25121 -75.16895 33677 ft 367 kts 230°
2026-05-07 23:20 39.23236 -75.19102 33861 ft 368 kts 230°
2026-05-07 23:20 39.21334 -75.21315 33875 ft 367 kts 230°
2026-05-07 23:21 39.17556 -75.25737 33858 ft 367 kts 230°
2026-05-07 23:21 39.13763 -75.30153 33848 ft 368 kts 230°
2026-05-07 23:22 39.09969 -75.34575 33798 ft 368 kts 230°
2026-05-07 23:22 39.06185 -75.38955 33825 ft 365 kts 230°
2026-05-07 23:23 39.02049 -75.42879 33871 ft 381 kts 218°
2026-05-07 23:23 38.99546 -75.44195 33857 ft 399 kts 208°
2026-05-07 23:23 38.96769 -75.44930 33857 ft 415 kts 200°
2026-05-07 23:24 38.90964 -75.45666 33866 ft 419 kts 198°
2026-05-07 23:24 38.85169 -75.46393 33853 ft 417 kts 199°
2026-05-07 23:25 38.79425 -75.47162 33883 ft 414 kts 199°
2026-05-07 23:25 38.73701 -75.47971 33890 ft 414 kts 200°
2026-05-07 23:26 38.67966 -75.48778 33890 ft 415 kts 199°
2026-05-07 23:26 38.62217 -75.49559 33874 ft 414 kts 200°
2026-05-07 23:27 38.53625 -75.50728 33903 ft 414 kts 200°
2026-05-07 23:27 38.47891 -75.51503 33894 ft 414 kts 200°
2026-05-07 23:28 38.42148 -75.52276 33859 ft 415 kts 200°
2026-05-07 23:28 38.36441 -75.53125 33891 ft 407 kts 204°
2026-05-07 23:29 38.33773 -75.54044 33898 ft 390 kts 213°
2026-05-07 23:29 38.31383 -75.55515 33901 ft 375 kts 222°
2026-05-07 23:29 38.27833 -75.58584 33902 ft 370 kts 225°
2026-05-07 23:30 38.23617 -75.62335 33901 ft 371 kts 225°
2026-05-07 23:30 38.19367 -75.66048 33885 ft 370 kts 225°
2026-05-07 23:31 38.15125 -75.69734 33901 ft 370 kts 225°
2026-05-07 23:31 38.10872 -75.73425 33903 ft 370 kts 225°
2026-05-07 23:32 38.06619 -75.77111 33908 ft 371 kts 225°
2026-05-07 23:32 38.02353 -75.80800 33843 ft 372 kts 226°
2026-05-07 23:33 37.98092 -75.84484 33888 ft 369 kts 226°
2026-05-07 23:33 37.93856 -75.88143 33902 ft 369 kts 226°
2026-05-07 23:34 37.89610 -75.91801 33904 ft 369 kts 226°
2026-05-07 23:34 37.85358 -75.95446 33901 ft 370 kts 226°
2026-05-07 23:35 37.81098 -75.99085 33849 ft 369 kts 226°
2026-05-07 23:35 37.76856 -76.02722 33894 ft 368 kts 226°
2026-05-07 23:36 37.72615 -76.06357 33898 ft 368 kts 226°
2026-05-07 23:36 37.68375 -76.09987 33905 ft 368 kts 226°
2026-05-07 23:37 37.64138 -76.13624 33906 ft 368 kts 226°
2026-05-07 23:37 37.59897 -76.17256 33912 ft 369 kts 226°
2026-05-07 23:38 37.55644 -76.20890 33918 ft 369 kts 226°
2026-05-07 23:38 37.51401 -76.24521 33916 ft 369 kts 226°
2026-05-07 23:39 37.47150 -76.28148 33914 ft 369 kts 226°
2026-05-07 23:39 37.42896 -76.31770 33911 ft 369 kts 226°
2026-05-07 23:40 37.38635 -76.35382 33856 ft 369 kts 226°
2026-05-07 23:40 37.34383 -76.39002 33897 ft 369 kts 227°
2026-05-07 23:41 37.30133 -76.42615 33911 ft 369 kts 226°
2026-05-07 23:41 37.25867 -76.46217 33910 ft 369 kts 226°
2026-05-07 23:42 37.21610 -76.49828 33918 ft 369 kts 226°
2026-05-07 23:42 37.17347 -76.53414 33883 ft 369 kts 226°
2026-05-07 23:43 37.13074 -76.56984 33884 ft 369 kts 227°
2026-05-07 23:43 37.08810 -76.60574 33900 ft 369 kts 227°
2026-05-07 23:44 37.04554 -76.64161 33899 ft 369 kts 227°
2026-05-07 23:44 37.00295 -76.67743 33903 ft 369 kts 227°
2026-05-07 23:45 36.96029 -76.71324 33831 ft 369 kts 227°
2026-05-07 23:45 36.91754 -76.74904 33888 ft 370 kts 227°
2026-05-07 23:46 36.87468 -76.78485 33918 ft 371 kts 227°
2026-05-07 23:46 36.83176 -76.82059 33917 ft 371 kts 227°
2026-05-07 23:47 36.78903 -76.85656 33921 ft 370 kts 227°
2026-05-07 23:47 36.74627 -76.89237 33888 ft 369 kts 227°
2026-05-07 23:48 36.70353 -76.92799 33909 ft 370 kts 227°
2026-05-07 23:48 36.66062 -76.96355 33918 ft 370 kts 227°
2026-05-07 23:49 36.61766 -76.99911 33920 ft 371 kts 227°
2026-05-07 23:49 36.57480 -77.03467 33921 ft 370 kts 227°
2026-05-07 23:50 36.53192 -77.07020 33921 ft 370 kts 227°
2026-05-07 23:50 36.48886 -77.10585 33896 ft 373 kts 227°
2026-05-07 23:51 36.44567 -77.14145 33917 ft 373 kts 227°
2026-05-07 23:51 36.40239 -77.17707 33918 ft 373 kts 227°
2026-05-07 23:52 36.35914 -77.21266 33919 ft 373 kts 227°
2026-05-07 23:52 36.31600 -77.24833 33927 ft 370 kts 229°
2026-05-07 23:53 36.27558 -77.28713 33901 ft 367 kts 231°
2026-05-07 23:53 36.23541 -77.32638 33923 ft 368 kts 231°
2026-05-07 23:54 36.19515 -77.36553 33923 ft 368 kts 231°
2026-05-07 23:54 36.15488 -77.40464 33928 ft 368 kts 231°
2026-05-07 23:55 36.11467 -77.44372 33914 ft 368 kts 231°
2026-05-07 23:55 36.07430 -77.48277 33854 ft 370 kts 230°
2026-05-07 23:56 36.03376 -77.52208 33910 ft 371 kts 230°
2026-05-07 23:56 35.99303 -77.56141 33920 ft 371 kts 230°
2026-05-07 23:57 35.95230 -77.60072 33949 ft 371 kts 231°
2026-05-07 23:57 35.91188 -77.63973 33929 ft 368 kts 231°
2026-05-07 23:58 35.87148 -77.67858 33924 ft 368 kts 231°
2026-05-07 23:58 35.83105 -77.71749 33904 ft 369 kts 230°
2026-05-07 23:59 35.79046 -77.75640 33915 ft 369 kts 230°
2026-05-07 23:59 35.74990 -77.79524 33925 ft 370 kts 230°
2026-05-08 00:00 35.70950 -77.83367 33913 ft 369 kts 230°
2026-05-08 00:00 35.66906 -77.87245 33911 ft 369 kts 230°
2026-05-08 00:01 35.62859 -77.91134 33858 ft 371 kts 230°
2026-05-08 00:01 35.58715 -77.95066 33910 ft 379 kts 230°
2026-05-08 00:02 35.54532 -77.99013 33924 ft 378 kts 230°
2026-05-08 00:02 35.50378 -78.02969 33921 ft 378 kts 230°
2026-05-08 00:03 35.46195 -78.06948 33922 ft 378 kts 230°
2026-05-08 00:03 35.42033 -78.10891 33918 ft 378 kts 230°
2026-05-08 00:04 35.37899 -78.14803 33908 ft 378 kts 230°
2026-05-08 00:04 35.33732 -78.18740 33907 ft 378 kts 230°
2026-05-08 00:05 35.29590 -78.22699 33904 ft 378 kts 230°
2026-05-08 00:05 35.25431 -78.26633 33895 ft 378 kts 230°
2026-05-08 00:06 35.21264 -78.30550 33894 ft 378 kts 230°
2026-05-08 00:06 35.17084 -78.34476 33856 ft 382 kts 230°
2026-05-08 00:07 35.12860 -78.38458 33890 ft 384 kts 230°
2026-05-08 00:07 35.08615 -78.42433 33893 ft 384 kts 230°
2026-05-08 00:08 35.04373 -78.46405 33898 ft 384 kts 230°
2026-05-08 00:08 35.00138 -78.50374 33898 ft 384 kts 230°
2026-05-08 00:09 34.95897 -78.54334 33895 ft 384 kts 230°
2026-05-08 00:09 34.91634 -78.58302 33876 ft 386 kts 229°
2026-05-08 00:10 34.87364 -78.62280 33881 ft 386 kts 229°
2026-05-08 00:10 34.83090 -78.66259 33870 ft 387 kts 229°
2026-05-08 00:11 34.78820 -78.70228 33874 ft 385 kts 229°
2026-05-08 00:11 34.74565 -78.74182 33872 ft 385 kts 229°
2026-05-08 00:12 34.71030 -78.77463 33804 ft 385 kts 228°
2026-05-08 00:12 34.66756 -78.81428 33851 ft 384 kts 228°
2026-05-08 00:13 34.62512 -78.85379 33858 ft 384 kts 228°
2026-05-08 00:13 34.58290 -78.89281 33859 ft 384 kts 228°
2026-05-08 00:14 34.54036 -78.93210 33859 ft 384 kts 228°
2026-05-08 00:14 34.49780 -78.97132 33859 ft 384 kts 228°
2026-05-08 00:15 34.45525 -79.01040 33844 ft 383 kts 227°
2026-05-08 00:15 34.41218 -79.04866 33846 ft 385 kts 226°
2026-05-08 00:16 34.36845 -79.08614 33853 ft 384 kts 226°
2026-05-08 00:17 34.28181 -79.16025 33841 ft 384 kts 226°